TimeAKDT,TemperatureF,Dew PointF,Humidity,Sea Level PressureIn,VisibilityMPH,Wind Direction,Wind SpeedMPH,Gust SpeedMPH,PrecipitationIn,Events,Conditions,WindDirDegrees,DateUTC
12:53 AM,24.1,21.0,88,30.01,10.0,Calm,Calm,-,N/A,,Clear,0,2012-10-29 08:53:00
1:53 AM,24.1,21.0,88,30.01,10.0,Calm,Calm,-,N/A,,Clear,0,2012-10-29 09:53:00
2:53 AM,23.0,21.0,92,30.01,10.0,Calm,Calm,-,N/A,,Clear,0,2012-10-29 10:53:00
3:53 AM,23.0,21.0,92,30.00,10.0,Calm,Calm,-,N/A,,Clear,0,2012-10-29 11:53:00
4:53 AM,24.1,21.9,91,29.99,10.0,Calm,Calm,-,N/A,,Clear,0,2012-10-29 12:53:00
5:53 AM,24.1,21.9,91,29.97,10.0,Calm,Calm,-,N/A,,Clear,0,2012-10-29 13:53:00
6:53 AM,23.0,21.0,92,29.96,10.0,Calm,Calm,-,N/A,,Clear,0,2012-10-29 14:53:00
7:53 AM,25.0,21.9,88,29.95,10.0,Calm,Calm,-,N/A,,Clear,0,2012-10-29 15:53:00
8:53 AM,25.0,23.0,92,29.93,10.0,Calm,Calm,-,N/A,,Mostly Cloudy,0,2012-10-29 16:53:00
9:15 AM,24.8,21.2,86,29.92,10.0,Calm,Calm,-,N/A,,Mostly Cloudy,0,2012-10-29 17:15:00
9:48 AM,26.6,23.0,86,29.92,9.0,Calm,Calm,-,N/A,,Scattered Clouds,0,2012-10-29 17:48:00
9:53 AM,26.1,23.0,88,29.92,8.0,Calm,Calm,-,N/A,,Partly Cloudy,0,2012-10-29 17:53:00
10:53 AM,27.0,24.1,89,29.92,10.0,Calm,Calm,-,N/A,,Mostly Cloudy,0,2012-10-29 18:53:00
11:53 AM,36.0,28.9,76,29.90,10.0,SSW,6.9,-,N/A,,Clear,210,2012-10-29 19:53:00
12:53 PM,39.9,26.1,58,29.88,10.0,SW,11.5,20.7,N/A,,Clear,220,2012-10-29 20:53:00
1:53 PM,39.9,26.1,58,29.86,10.0,SSW,11.5,18.4,N/A,,Partly Cloudy,200,2012-10-29 21:53:00
2:53 PM,39.9,26.1,58,29.85,10.0,SSW,6.9,17.3,N/A,,Clear,200,2012-10-29 22:53:00
3:53 PM,37.9,28.0,68,29.84,10.0,South,9.2,17.3,N/A,,Scattered Clouds,190,2012-10-29 23:53:00
4:04 PM,37.4,28.4,70,29.84,10.0,South,5.8,-,N/A,,Mostly Cloudy,190,2012-10-30 00:04:00
4:53 PM,37.9,28.0,68,29.82,10.0,South,10.4,-,N/A,,Mostly Cloudy,170,2012-10-30 00:53:00
5:06 PM,37.4,28.4,70,29.82,10.0,South,5.8,-,N/A,,Scattered Clouds,170,2012-10-30 01:06:00
5:46 PM,35.6,28.4,75,29.82,10.0,South,4.6,-,N/A,,Mostly Cloudy,190,2012-10-30 01:46:00
5:53 PM,37.0,28.0,70,29.82,10.0,SSW,3.5,-,N/A,,Mostly Cloudy,200,2012-10-30 01:53:00
6:16 PM,35.6,28.4,75,29.82,10.0,Calm,Calm,-,N/A,,Partly Cloudy,0,2012-10-30 02:16:00
6:51 PM,33.8,28.4,81,29.82,10.0,Calm,Calm,-,N/A,,Mostly Cloudy,0,2012-10-30 02:51:00
6:53 PM,34.0,28.9,82,29.82,10.0,Calm,Calm,-,N/A,,Mostly Cloudy,0,2012-10-30 02:53:00
7:40 PM,37.4,30.2,75,29.81,10.0,North,6.9,-,N/A,,Partly Cloudy,10,2012-10-30 03:40:00
7:53 PM,37.9,28.9,70,29.81,10.0,North,10.4,-,N/A,,Scattered Clouds,10,2012-10-30 03:53:00
8:53 PM,39.0,28.0,65,29.82,10.0,North,8.1,-,N/A,,Overcast,10,2012-10-30 04:53:00
9:53 PM,37.9,30.9,76,29.81,10.0,NNE,6.9,-,N/A,,Overcast,20,2012-10-30 05:53:00
10:18 PM,37.4,30.2,75,29.81,10.0,NNE,8.1,-,N/A,,Overcast,20,2012-10-30 06:18:00
10:31 PM,37.4,32.0,81,29.81,10.0,North,6.9,-,N/A,,Overcast,10,2012-10-30 06:31:00
10:53 PM,37.9,30.9,76,29.81,10.0,NNE,5.8,-,N/A,,Overcast,30,2012-10-30 06:53:00
11:46 PM,37.4,30.2,75,29.81,10.0,North,3.5,-,N/A,,Overcast,10,2012-10-30 07:46:00
11:53 PM,37.9,32.0,79,29.81,10.0,NNE,4.6,-,N/A,,Overcast,20,2012-10-30 07:53:00